DMSP 5D-2 F13 DEB, 40437

Orbit data source: Space-Track

DMSP 5D-2 F13 DEB, 40437 is space debris in SSO originally from a launch on Fri, 24 Mar 1995 UTC launched from the Air Force Western Test Range (AFWTR). Debris objects in space refer to the collection of defunct objects orbiting the Earth. Examples of debris include non-operational satellites, rocket bodies, and fragments generated from explosions, collisions, or faulty payload assembly.

Loading next visibility...
Identifier
40437, 1995-015AP
Orbit
SSO
Country
Flag of USUS
Related business
Manufacturer
Unknown
Mission
Spacecraft
Bus & Motor
Unknown
Mass
Unknown
Launch date (UTC)
1995-03-24 (31 years ago)
Launch vehicle
Unknown
Launch site
Air Force Western Test Range (AFWTR)
Object type
Payload
Rocket body
Debris
Shape & HBR
Unknown shape, 0.1 m
Radar Cross Section
Small (<0.1 m²)

Expand to show TLE details & history
Last TLE update: 18 hours ago

TLE from 18 hours ago
0 DMSP 5D-2 F13 DEB
1 40437U 95015AP  25340.44225584  .00047736  00000-0  82766-2 0  9994
2 40437  98.6742  42.6319 0010077 320.2664  39.7800 14.67991637561719
Epoch: 2025-12-06T10:36Z
TLE epoch observation values (Epoch: 2025-12-06T10:36:50.904Z)
Latitude
-0.00003°
Longitude
167.94987°
Altitude
665.013 km
Speed
7.528 km/s
True Right ascension
02h 50m 31s
True Declination
0° 00' 00"
Sunlit
Object was in full shadow at epoch
Visualization orbit readout
Latitude
Unknown
Longitude
Unknown
Altitude
Unknown
Speed
Unknown
Apparent Right ascension
Unknown
Apparent Declination
Unknown
Sunlit
N/A
Visualization observer readout
Local Sidereal Time
02:53:12
Azimuth
Unknown
Elevation
Unknown
Doppler factor
Unknown
Orbital elements
Apogee altitude
671.677 km
Perigee altitude
657.483 km
Semi-major axis
7,042.717 km
Eccentricity
0.00101
Inclination
98.6742°
RAAN
42.6319°
Arg. of periapsis
320.2664°
True anomaly
39.85396°
Mean anomaly
39.78°
Eccentric anomaly
39.81697°
Mean motion
3.67225 °/min
Orbital period
98.03 mins
BSTAR
0.0082766

Documentation

Showing up to 5 results
|